Location: Capvern
(43.1036°N, 0.3160°E)
Time: 22:56:39
(UTC+00:00)

Cosmos 2082 - Pass Details

Date: 16 October 2021
Orbit: 835 x 853 km, 71.0° (Epoch: 04 December)

Event Time Altitude Azimuth Distance (km) Brightness Sun altitude
Rises 18:08:15 0° 336° (NNW) 3,394 7.1 -10.6°
Reaches altitude 10° 18:10:43 10° 339° (NNW) 2,455 6.4 -11.1°
Maximum altitude 18:16:20 73° 64° (ENE) 877 3.6 -12.1°
Drops below altitude 10° 18:21:56 10° 149° (SSE) 2,441 5.8 -13.1°
Sets 18:24:22 0° 151° (SSE) 3,372 6.5 -13.6°
